Portada
METAR-TAF:

METAR-TAF

Aeroports :

Remada, Tunísia

latitud: 32-19N, longitud: 010-24E, altitud: 300 m

Observació

L'informe es va fer fa 26 minuts, a les 17:00 UTC
Vent 10 kt del Est, variant entre Est/Nord-Est i Sud-Est
Temperatura 26°C
Humitat 48%
Pressió 1009 hPa
Visibilitat 10 km o més
Escasses núvols a una alçada de 2600 ft

METAR: DTTD 201700Z 09010KT 060V130 9999 FEW026 26/14 Q1009

Hora: 18:26 (17:26 UTC)


TAF: manca

Observacions i pronòstics meteorològics de més de 4000 aeroports (METAR i TAF).

Les estacions disponibles són els punts grocs i vermells al mapa.

Posi el ratolí al punt desitjat per veure el nom de l'estació.

Feu clic per veure les observacions i els pronòstics meteorològics.

Per canviar el mapa: feu clic els botons verds amb una creu de color negre per apropar; al botó verd amb un guió per allunyar la imatge; o en les fletxes verdes per a mapes adjacents.


METAR-TAF: